RAM26P GMMN-LPPT

Flight info

Callsign RAM26P
Flight time N/A
Altitude 36000
Route LAKAM UR722 AMSEL DCT VATZI
Aircraft B738/M-SDE2E3FGHIRWXY/LB1

Departure

Time 2026-05-06 17:03
Airport Mohammed V International Airport (GMMN)

Arrival

Time N/A
Airport Lisbon Humberto Delgado Airport (LPPT)
Time Latitude Longitude Altitude Speed Heading
2026-05-06 16:53 33.36647 -7.58179 652 ft 0 kts 119°
2026-05-06 16:58 33.36646 -7.58175 652 ft 2 kts 119°
2026-05-06 16:58 33.36631 -7.58144 654 ft 7 kts 119°
2026-05-06 16:59 33.36585 -7.58083 652 ft 13 kts 155°
2026-05-06 16:59 33.36521 -7.58085 652 ft 16 kts 204°
2026-05-06 16:59 33.36386 -7.58137 652 ft 13 kts 162°
2026-05-06 16:59 33.36293 -7.58109 652 ft 13 kts 187°
2026-05-06 17:00 33.36261 -7.58150 654 ft 7 kts 254°
2026-05-06 17:00 33.36232 -7.58226 652 ft 13 kts 215°
2026-05-06 17:00 33.36119 -7.58212 651 ft 21 kts 164°
2026-05-06 17:00 33.35963 -7.58159 651 ft 27 kts 164°
2026-05-06 17:01 33.35759 -7.58089 654 ft 33 kts 164°
2026-05-06 17:01 33.35521 -7.58008 651 ft 37 kts 164°
2026-05-06 17:01 33.35338 -7.57947 654 ft 19 kts 171°
2026-05-06 17:01 33.35245 -7.58040 652 ft 19 kts 252°
2026-05-06 17:02 33.35210 -7.58192 655 ft 19 kts 262°
2026-05-06 17:02 33.35251 -7.58271 654 ft 18 kts 336°
2026-05-06 17:02 33.35578 -7.58386 647 ft 92 kts 344°
2026-05-06 17:02 33.36441 -7.58677 747 ft 156 kts 346°
2026-05-06 17:03 33.37566 -7.59033 1558 ft 178 kts 345°
2026-05-06 17:03 33.38817 -7.59479 2383 ft 188 kts 342°
2026-05-06 17:03 33.40066 -7.60059 3152 ft 202 kts 336°
2026-05-06 17:03 33.41388 -7.60881 3595 ft 222 kts 329°
2026-05-06 17:04 33.42722 -7.61961 4138 ft 239 kts 320°
2026-05-06 17:04 33.43978 -7.63275 4926 ft 240 kts 312°
2026-05-06 17:04 33.45085 -7.64772 5733 ft 242 kts 304°
2026-05-06 17:04 33.46040 -7.66428 6609 ft 240 kts 300°
2026-05-06 17:05 33.46937 -7.68124 7392 ft 243 kts 299°
2026-05-06 17:05 33.47842 -7.69848 8157 ft 246 kts 299°
2026-05-06 17:05 33.48766 -7.71598 8941 ft 249 kts 299°
2026-05-06 17:05 33.49702 -7.73359 9736 ft 252 kts 299°
2026-05-06 17:06 33.50653 -7.75139 10447 ft 255 kts 299°
2026-05-06 17:06 33.51616 -7.76938 11178 ft 258 kts 299°
2026-05-06 17:06 33.52590 -7.78752 11920 ft 260 kts 298°
2026-05-06 17:06 33.53575 -7.80583 12649 ft 263 kts 298°
2026-05-06 17:07 33.54571 -7.82437 13382 ft 266 kts 298°
2026-05-06 17:07 33.55579 -7.84313 14061 ft 269 kts 298°
2026-05-06 17:07 33.56597 -7.86206 14735 ft 271 kts 298°
2026-05-06 17:07 33.57866 -7.87904 15377 ft 282 kts 320°
2026-05-06 17:08 33.59701 -7.88863 15948 ft 301 kts 344°
2026-05-06 17:08 33.61889 -7.88877 16120 ft 332 kts
2026-05-06 17:08 33.64226 -7.88323 16299 ft 353 kts
2026-05-06 17:08 33.66694 -7.87662 16451 ft 373 kts
2026-05-06 17:09 33.69288 -7.86946 16650 ft 390 kts
2026-05-06 17:09 33.71966 -7.86208 17124 ft 398 kts
2026-05-06 17:09 33.74678 -7.85468 17748 ft 401 kts
2026-05-06 17:09 33.77404 -7.84733 18389 ft 404 kts
2026-05-06 17:10 33.80163 -7.83997 18917 ft 407 kts
2026-05-06 17:10 33.82935 -7.83263 19471 ft 410 kts
2026-05-06 17:10 33.85729 -7.82526 19999 ft 413 kts
2026-05-06 17:10 33.88554 -7.81782 20525 ft 417 kts
2026-05-06 17:11 33.91395 -7.81033 21037 ft 420 kts
2026-05-06 17:11 33.94260 -7.80277 21549 ft 423 kts
2026-05-06 17:11 33.97147 -7.79515 22029 ft 427 kts
2026-05-06 17:11 34.00015 -7.78757 22515 ft 430 kts
2026-05-06 17:12 34.02950 -7.77980 22996 ft 433 kts
2026-05-06 17:12 34.05905 -7.77198 23464 ft 437 kts
2026-05-06 17:12 34.08880 -7.76408 23886 ft 439 kts
2026-05-06 17:12 34.11866 -7.75616 24340 ft 440 kts
2026-05-06 17:13 34.14860 -7.74836 24773 ft 440 kts
2026-05-06 17:13 34.17889 -7.74495 25171 ft 436 kts 354°
2026-05-06 17:13 34.20916 -7.74676 25589 ft 435 kts 352°
2026-05-06 17:13 34.23940 -7.74935 25983 ft 437 kts 352°
2026-05-06 17:14 34.26983 -7.75211 26360 ft 439 kts 352°
2026-05-06 17:14 34.30034 -7.75482 26742 ft 441 kts 352°
2026-05-06 17:14 34.33105 -7.75741 27115 ft 443 kts 352°
2026-05-06 17:14 34.36185 -7.75989 27481 ft 445 kts 353°
2026-05-06 17:15 34.39280 -7.76230 27840 ft 447 kts 353°
2026-05-06 17:15 34.42389 -7.76467 28199 ft 448 kts 353°
2026-05-06 17:15 34.45509 -7.76701 28523 ft 450 kts 353°
2026-05-06 17:15 34.48640 -7.76936 28861 ft 452 kts 353°
2026-05-06 17:16 34.51789 -7.77173 29185 ft 454 kts 353°
2026-05-06 17:16 34.54947 -7.77410 29491 ft 456 kts 353°
2026-05-06 17:16 34.58121 -7.77649 29800 ft 458 kts 353°
2026-05-06 17:16 34.61308 -7.77890 30085 ft 459 kts 353°
2026-05-06 17:17 34.64502 -7.78131 30328 ft 461 kts 353°
2026-05-06 17:17 34.67715 -7.78375 30566 ft 463 kts 353°
2026-05-06 17:17 34.70929 -7.78618 30857 ft 463 kts 353°
2026-05-06 17:17 34.74138 -7.78860 31219 ft 461 kts 353°
2026-05-06 17:18 34.77335 -7.79102 31580 ft 460 kts 353°
2026-05-06 17:18 34.80527 -7.79344 31886 ft 459 kts 353°
2026-05-06 17:18 34.83717 -7.79586 32168 ft 460 kts 353°
2026-05-06 17:18 34.86911 -7.79830 32465 ft 459 kts 353°
2026-05-06 17:19 34.90098 -7.80072 32788 ft 458 kts 353°
2026-05-06 17:19 34.93277 -7.80314 33116 ft 457 kts 353°
2026-05-06 17:19 34.96453 -7.80556 33392 ft 458 kts 353°
2026-05-06 17:19 34.99635 -7.80800 33642 ft 458 kts 353°
2026-05-06 17:20 35.02816 -7.81043 33913 ft 458 kts 352°
2026-05-06 17:20 35.05992 -7.81286 34155 ft 458 kts 352°
2026-05-06 17:20 35.09175 -7.81530 34342 ft 459 kts 352°
2026-05-06 17:20 35.12366 -7.81774 34530 ft 460 kts 352°
2026-05-06 17:21 35.15562 -7.82019 34746 ft 460 kts 352°
2026-05-06 17:21 35.18754 -7.82264 34959 ft 460 kts 352°
2026-05-06 17:21 35.21945 -7.82508 35183 ft 460 kts 352°
2026-05-06 17:21 35.25141 -7.82754 35404 ft 460 kts 352°
2026-05-06 17:22 35.28330 -7.82999 35606 ft 460 kts 352°
2026-05-06 17:22 35.31526 -7.83244 35825 ft 459 kts 352°
2026-05-06 17:22 35.34718 -7.83490 35943 ft 461 kts 352°
2026-05-06 17:23 35.41159 -7.83989 35947 ft 465 kts 352°
2026-05-06 17:23 35.47587 -7.84482 35927 ft 460 kts 352°
2026-05-06 17:24 35.53943 -7.84971 35942 ft 456 kts 351°
2026-05-06 17:24 35.60269 -7.85462 35935 ft 454 kts 351°
2026-05-06 17:25 35.66573 -7.85952 35942 ft 453 kts 351°
2026-05-06 17:25 35.72871 -7.86442 35939 ft 454 kts 351°
2026-05-06 17:26 35.79182 -7.86933 35943 ft 455 kts 351°
2026-05-06 17:26 35.85477 -7.87424 35942 ft 457 kts 351°
2026-05-06 17:27 35.91840 -7.87920 35938 ft 459 kts 351°
2026-05-06 17:27 35.98079 -7.89179 35939 ft 450 kts 337°
2026-05-06 17:27 36.00959 -7.90627 36065 ft 446 kts 330°
2026-05-06 17:28 36.03759 -7.92284 36007 ft 447 kts 329°
2026-05-06 17:28 36.09351 -7.95666 35934 ft 447 kts 329°
2026-05-06 17:29 36.14903 -7.98990 35923 ft 439 kts 329°
2026-05-06 17:29 36.20410 -8.02256 35939 ft 440 kts 329°
2026-05-06 17:30 36.25954 -8.05538 35940 ft 443 kts 329°
2026-05-06 17:30 36.31536 -8.08844 35938 ft 446 kts 330°
2026-05-06 17:31 36.37148 -8.12171 35933 ft 448 kts 330°
2026-05-06 17:31 36.42758 -8.15502 35891 ft 442 kts 329°
2026-05-06 17:31 36.45508 -8.17133 35533 ft 435 kts 329°
2026-05-06 17:32 36.48241 -8.18758 34904 ft 436 kts 329°
2026-05-06 17:32 36.50984 -8.20395 34329 ft 437 kts 330°
2026-05-06 17:32 36.53691 -8.22007 34144 ft 427 kts 329°
2026-05-06 17:32 36.56341 -8.23585 33886 ft 418 kts 329°
2026-05-06 17:33 36.58921 -8.25124 33625 ft 417 kts 329°
2026-05-06 17:33 36.61550 -8.26700 33366 ft 422 kts 329°
2026-05-06 17:33 36.64216 -8.28299 33115 ft 427 kts 329°
2026-05-06 17:33 36.66885 -8.29899 32850 ft 424 kts 329°
2026-05-06 17:34 36.69534 -8.31484 32585 ft 420 kts 329°
2026-05-06 17:34 36.72162 -8.33058 32312 ft 417 kts 329°
2026-05-06 17:34 36.74767 -8.34619 32056 ft 414 kts 329°
2026-05-06 17:34 36.77357 -8.36173 31802 ft 412 kts 329°
2026-05-06 17:35 36.79932 -8.37720 31549 ft 410 kts 329°
2026-05-06 17:35 36.82492 -8.39260 31306 ft 408 kts 329°
2026-05-06 17:35 36.85043 -8.40795 31059 ft 406 kts 329°
2026-05-06 17:36 36.90119 -8.43854 30575 ft 404 kts 329°
2026-05-06 17:36 36.92644 -8.45376 30339 ft 403 kts 330°
2026-05-06 17:36 36.95164 -8.46898 30098 ft 402 kts 330°
2026-05-06 17:36 36.97681 -8.48418 29850 ft 401 kts 330°
2026-05-06 17:37 37.00187 -8.49932 29531 ft 398 kts 330°
2026-05-06 17:37 37.02662 -8.51428 29166 ft 392 kts 330°
2026-05-06 17:37 37.05109 -8.52907 28749 ft 388 kts 329°
2026-05-06 17:37 37.07446 -8.54321 28363 ft 385 kts 329°
2026-05-06 17:38 37.09845 -8.55776 27958 ft 381 kts 329°
2026-05-06 17:38 37.12222 -8.57218 27569 ft 378 kts 329°
2026-05-06 17:38 37.13785 -8.58166 27306 ft 376 kts 329°
2026-05-06 17:38 37.16919 -8.60071 26782 ft 373 kts 329°
2026-05-06 17:39 37.19246 -8.61486 26394 ft 370 kts 329°
2026-05-06 17:39 37.21558 -8.62892 26011 ft 368 kts 329°
2026-05-06 17:39 37.23856 -8.64291 25630 ft 366 kts 329°
2026-05-06 17:39 37.26135 -8.65680 25252 ft 364 kts 329°
2026-05-06 17:40 37.28408 -8.67065 24885 ft 362 kts 329°
2026-05-06 17:40 37.29908 -8.67980 24625 ft 361 kts 330°
2026-05-06 17:40 37.32925 -8.69821 24121 ft 360 kts 329°
2026-05-06 17:40 37.35172 -8.71195 23740 ft 359 kts 330°
2026-05-06 17:41 37.37420 -8.72569 23326 ft 359 kts 330°
2026-05-06 17:41 37.39658 -8.73938 22902 ft 357 kts 330°
2026-05-06 17:41 37.41887 -8.75301 22495 ft 355 kts 330°
2026-05-06 17:41 37.44101 -8.76657 22120 ft 353 kts 330°
2026-05-06 17:42 37.46297 -8.78003 21746 ft 351 kts 330°
2026-05-06 17:42 37.48486 -8.79345 21375 ft 348 kts 330°
2026-05-06 17:42 37.50658 -8.80678 21004 ft 346 kts 330°
2026-05-06 17:42 37.52818 -8.82004 20642 ft 344 kts 330°
2026-05-06 17:43 37.54965 -8.83323 20277 ft 342 kts 330°
2026-05-06 17:43 37.57101 -8.84637 19916 ft 341 kts 330°
2026-05-06 17:43 37.59228 -8.85945 19556 ft 339 kts 330°
2026-05-06 17:43 37.61407 -8.87104 19169 ft 341 kts 336°
2026-05-06 17:44 37.63661 -8.88047 18805 ft 341 kts 339°
2026-05-06 17:44 37.65926 -8.88924 18443 ft 340 kts 339°
2026-05-06 17:44 37.68191 -8.89787 18070 ft 339 kts 340°
2026-05-06 17:44 37.70468 -8.90630 17539 ft 342 kts 340°
2026-05-06 17:45 37.72758 -8.91469 17045 ft 344 kts 340°
2026-05-06 17:45 37.75049 -8.92307 16663 ft 341 kts 341°
2026-05-06 17:45 37.77319 -8.93139 16324 ft 338 kts 340°
2026-05-06 17:45 37.79576 -8.93967 15921 ft 338 kts 341°
2026-05-06 17:46 37.81783 -8.94778 15583 ft 335 kts 341°
2026-05-06 17:46 37.84019 -8.95601 15250 ft 332 kts 340°
2026-05-06 17:46 37.86230 -8.96418 14886 ft 331 kts 340°
2026-05-06 17:46 37.88436 -8.97235 14525 ft 329 kts 341°
2026-05-06 17:47 37.90628 -8.98045 14203 ft 327 kts 341°
2026-05-06 17:47 37.92803 -8.98850 13881 ft 324 kts 341°
2026-05-06 17:47 37.94937 -8.99640 13516 ft 323 kts 341°
2026-05-06 17:47 37.96387 -9.00178 13264 ft 322 kts 341°
2026-05-06 17:48 37.99221 -9.01228 12799 ft 318 kts 341°
2026-05-06 17:48 38.01337 -9.02014 12453 ft 316 kts 342°
2026-05-06 17:48 38.03442 -9.02796 12100 ft 314 kts 342°
2026-05-06 17:48 38.04857 -9.03321 11870 ft 313 kts 342°
2026-05-06 17:49 38.06938 -9.04095 11543 ft 311 kts 342°
2026-05-06 17:49 38.09008 -9.04865 11210 ft 309 kts 342°
2026-05-06 17:49 38.11063 -9.05630 10880 ft 307 kts 342°
2026-05-06 17:49 38.13100 -9.06388 10634 ft 302 kts 342°
2026-05-06 17:50 38.15050 -9.07114 10564 ft 291 kts 342°
2026-05-06 17:50 38.16965 -9.07827 10420 ft 283 kts 342°
2026-05-06 17:50 38.18836 -9.08525 10232 ft 278 kts 342°
2026-05-06 17:50 38.20685 -9.09215 9960 ft 277 kts 342°
2026-05-06 17:51 38.22528 -9.09903 9660 ft 275 kts 343°
2026-05-06 17:51 38.24363 -9.10589 9356 ft 274 kts 343°
2026-05-06 17:51 38.26189 -9.11271 9051 ft 273 kts 343°
2026-05-06 17:51 38.28008 -9.11952 8749 ft 272 kts 343°
2026-05-06 17:52 38.29817 -9.12629 8458 ft 270 kts 343°
2026-05-06 17:52 38.31621 -9.13304 8166 ft 269 kts 343°
2026-05-06 17:52 38.33416 -9.13976 7875 ft 268 kts 343°
2026-05-06 17:52 38.35203 -9.14646 7589 ft 267 kts 343°
2026-05-06 17:53 38.36983 -9.15313 7305 ft 266 kts 343°
2026-05-06 17:53 38.38755 -9.15978 7019 ft 265 kts 343°
2026-05-06 17:53 38.40523 -9.16642 6750 ft 264 kts 343°
2026-05-06 17:53 38.42284 -9.17303 6471 ft 263 kts 343°
2026-05-06 17:54 38.44039 -9.17962 6205 ft 262 kts 343°
2026-05-06 17:54 38.45780 -9.18616 5979 ft 259 kts 343°
2026-05-06 17:54 38.47496 -9.19262 5814 ft 254 kts 343°
2026-05-06 17:54 38.49162 -9.19888 5718 ft 246 kts 343°
2026-05-06 17:55 38.50772 -9.20494 5630 ft 235 kts 343°
2026-05-06 17:55 38.52281 -9.21062 5529 ft 216 kts 343°
2026-05-06 17:55 38.53656 -9.21579 5439 ft 196 kts 342°
2026-05-06 17:55 38.54900 -9.22048 5290 ft 179 kts 342°
2026-05-06 17:56 38.56090 -9.22496 4851 ft 181 kts 342°
2026-05-06 17:56 38.57350 -9.22973 4159 ft 193 kts 342°
2026-05-06 17:56 38.58626 -9.23450 3683 ft 191 kts 345°
2026-05-06 17:56 38.59924 -9.23318 3289 ft 189 kts 20°
2026-05-06 17:57 38.61082 -9.22663 3167 ft 180 kts 18°
2026-05-06 17:57 38.62242 -9.22056 3073 ft 177 kts 18°
2026-05-06 17:57 38.63393 -9.21449 3070 ft 183 kts 18°
2026-05-06 17:57 38.64570 -9.20842 2917 ft 180 kts 18°
2026-05-06 17:58 38.65707 -9.20241 2805 ft 167 kts 19°
2026-05-06 17:58 38.66691 -9.19700 2789 ft 147 kts 16°
2026-05-06 17:58 38.67645 -9.19178 2369 ft 152 kts 19°
2026-05-06 17:58 38.68581 -9.18639 2107 ft 140 kts 18°
2026-05-06 17:59 38.69457 -9.18145 1866 ft 137 kts 15°
2026-05-06 17:59 38.70360 -9.17697 1709 ft 141 kts 16°
2026-05-06 17:59 38.71269 -9.17234 1592 ft 140 kts 18°
2026-05-06 17:59 38.72178 -9.16736 1448 ft 147 kts 18°
2026-05-06 18:00 38.73124 -9.16211 1256 ft 148 kts 19°
2026-05-06 18:00 38.74089 -9.15709 933 ft 152 kts 14°
2026-05-06 18:00 38.75051 -9.15207 657 ft 146 kts 18°
2026-05-06 18:00 38.76002 -9.14727 502 ft 151 kts 20°
2026-05-06 18:01 38.76975 -9.14200 345 ft 144 kts 15°
2026-05-06 18:01 38.77688 -9.13832 350 ft 79 kts 21°